Location: Banksville Park
(38.5557°N, 75.1182°W)
Time: 06:35:19
(UTC+00:00)

CENTAUR R/B - Pass Details

Date: 24 January 2021
Orbit: 742 x 1446 km, 63.5° (Epoch: 01 March)

Event Time Altitude Azimuth Distance (km) Brightness Sun altitude
Rises 09:23:36 0° 159° (SSE) 3,287 5.5 -32.8°
Reaches altitude 10° 09:27:03 10° 135° (SE) 2,457 5.1 -32.2°
Maximum altitude 09:29:59 14° 103° (ESE) 2,250 5.1 -31.6°
Drops below altitude 10° 09:33:08 10° 72° (ENE) 2,675 5.6 -31.0°
Sets 09:37:09 0° 50° (NE) 3,785 6.2 -30.2°
